Windom, MN

6:22 AM CDT on March 26, 2017 (GMT -0500)
Windom Municipal

Weather History for KMWM - December, 2014

Change the Weather History Date:

Friday, December 19, 2014

  Actual Average Record
Temperature  
Mean Temperature 28 °F -  
Max Temperature 32 °F 26 °F 47 °F (1979)
Min Temperature 24 °F 8 °F -22 °F (1983)
Degree Days  
Heating Degree Days 37    
Moisture  
Dew Point 27 °F    
Average Humidity 92    
Maximum Humidity 100    
Minimum Humidity 87    
Precipitation  
Precipitation 0.00 in - - ()
Sea Level Pressure  
Sea Level Pressure 30.14 in    
Wind  
Wind Speed 4 mph (South)    
Max Wind Speed 17 mph    
Max Gust Speed 23 mph    
Visibility 6 miles    
Events      
Averages and records for this station are not official NWS values.
T = Trace of Precipitation, MM = Missing Value Source: NWS Daily Summary

Daily Weather History Graph

Daily Weather History Graph

Search for Another Location

Airport or City:

Trip Planner

Search our weather history database for the weather conditions in past years. The results will help you decide how hot, cold, wet, or windy it might be!

Date:

Astronomy

Dec. 19, 2014 Rise Set
Actual Time 7:50 AM CST 4:44 PM CST
Civil Twilight 7:17 AM CST 5:17 PM CST
Nautical Twilight 6:41 AM CST 5:54 PM CST
Astronomical Twilight 6:05 AM CST 6:29 PM CST
Moon 5:02 AM CST (12/19) 3:11 PM CST (12/19)
Length of Visible Light 10h 00m
Length of Day
8h 54m
Waning Crescent, 7% of the Moon is Illuminated
Dec 19
Waning Crescent
Dec 21
New
Dec 28
First Quarter
Jan 4
Full
Jan 13
Last Quarter

Hourly Weather History & Observations

Time (CST) Temp. Windchill Dew Point Humidity Pressure Visibility Wind Dir Wind Speed Gust Speed Precip Events Conditions
12:13 AM 24.8 °F - 23.0 °F 93% 30.20 in 10.0 mi Calm Calm - N/A   Overcast
12:33 AM 24.8 °F - 23.0 °F 93% 30.20 in 10.0 mi Calm Calm - N/A   Overcast
12:54 AM 24.8 °F - 23.0 °F 93% 30.20 in 10.0 mi Calm Calm - N/A   Overcast
1:13 AM 24.8 °F - 23.0 °F 93% 30.20 in 10.0 mi Calm Calm - N/A   Overcast
1:33 AM 24.8 °F - 23.0 °F 93% 30.20 in 10.0 mi Calm Calm - N/A   Overcast
1:54 AM 24.8 °F - 23.0 °F 93% 30.19 in 10.0 mi Calm Calm - N/A   Mostly Cloudy
2:13 AM 26.6 °F - 24.8 °F 93% 30.20 in 7.0 mi Calm Calm - N/A   Mostly Cloudy
2:34 AM 26.6 °F - 24.8 °F 93% 30.20 in 7.0 mi Calm Calm - N/A   Mostly Cloudy
2:53 AM 26.6 °F - 24.8 °F 93% 30.20 in 5.0 mi Calm Calm - N/A   Overcast
3:13 AM 26.6 °F - 24.8 °F 93% 30.19 in 4.0 mi Calm Calm - N/A   Overcast
3:34 AM 26.6 °F - 24.8 °F 93% 30.18 in 4.0 mi Calm Calm - N/A   Overcast
3:53 AM 26.6 °F - 26.6 °F 100% 30.18 in 4.0 mi Calm Calm - N/A   Overcast
4:13 AM 26.6 °F - 26.6 °F 100% 30.18 in 3.0 mi Calm Calm - N/A   Overcast
4:34 AM 26.6 °F - 26.6 °F 100% 30.17 in 3.0 mi Calm Calm - N/A   Overcast
4:53 AM 26.6 °F - 26.6 °F 100% 30.18 in 3.0 mi Calm Calm - N/A   Overcast
5:13 AM 26.6 °F - 26.6 °F 100% 30.17 in 3.0 mi Calm Calm - N/A   Overcast
5:34 AM 26.6 °F - 26.6 °F 100% 30.17 in 3.0 mi Calm Calm - N/A   Overcast
5:53 AM 26.6 °F - 26.6 °F 100% 30.18 in 3.0 mi Calm Calm - N/A   Overcast
6:13 AM 26.6 °F - 26.6 °F 100% 30.18 in 3.0 mi Calm Calm - N/A   Overcast
6:34 AM 28.4 °F - 26.6 °F 93% 30.17 in 3.0 mi Calm Calm - N/A   Overcast
6:53 AM 28.4 °F - 26.6 °F 93% 30.17 in 3.0 mi Calm Calm - N/A   Overcast
7:14 AM 28.4 °F - 26.6 °F 93% 30.17 in 3.0 mi Calm Calm - N/A   Overcast
7:34 AM 28.4 °F - 26.6 °F 93% 30.17 in 3.0 mi Calm Calm - N/A   Overcast
7:53 AM 28.4 °F - 28.4 °F 100% 30.16 in 3.0 mi Calm Calm - N/A   Overcast
8:14 AM 28.4 °F 23.3 °F 28.4 °F 100% 30.17 in 3.0 mi South 4.6 mph - N/A   Overcast
8:33 AM 28.4 °F 21.2 °F 28.4 °F 100% 30.17 in 2.5 mi South 6.9 mph - N/A   Overcast
8:53 AM 28.4 °F 21.2 °F 28.4 °F 100% 30.17 in 2.0 mi South 6.9 mph - N/A   Overcast
9:14 AM 28.4 °F 21.2 °F 28.4 °F 100% 30.17 in 2.0 mi South 6.9 mph - N/A   Overcast
9:33 AM 28.4 °F 20.4 °F 28.4 °F 100% 30.17 in 2.5 mi South 8.1 mph - N/A   Overcast
9:53 AM 30.2 °F 22.6 °F 28.4 °F 93% 30.17 in 2.5 mi South 8.1 mph - N/A   Overcast
10:14 AM 30.2 °F 21.9 °F 28.4 °F 93% 30.17 in 2.5 mi South 9.2 mph - N/A   Overcast
10:33 AM 30.2 °F 23.4 °F 28.4 °F 93% 30.17 in 2.5 mi South 6.9 mph - N/A   Overcast
10:53 AM 30.2 °F 22.6 °F 28.4 °F 93% 30.16 in 3.0 mi South 8.1 mph - N/A   Overcast
11:14 AM 30.2 °F 21.3 °F 28.4 °F 93% 30.16 in 3.0 mi South 10.4 mph - N/A   Overcast
11:33 AM 30.2 °F 21.9 °F 28.4 °F 93% 30.16 in 4.0 mi South 9.2 mph - N/A   Overcast
11:53 AM 30.2 °F 22.6 °F 28.4 °F 93% 30.15 in 4.0 mi South 8.1 mph - N/A   Overcast
12:14 PM 30.2 °F 23.4 °F 28.4 °F 93% 30.15 in 4.0 mi South 6.9 mph - N/A   Overcast
12:33 PM 32.0 °F 25.6 °F 28.4 °F 87% 30.14 in 4.0 mi South 6.9 mph - N/A   Overcast
12:53 PM 32.0 °F 25.6 °F 28.4 °F 87% 30.13 in 5.0 mi South 6.9 mph - N/A   Overcast
1:13 PM 32.0 °F 23.6 °F 28.4 °F 87% 30.13 in 7.0 mi South 10.4 mph 17.3 mph N/A   Overcast
1:33 PM 32.0 °F 22.5 °F 28.4 °F 87% 30.12 in 7.0 mi South 12.7 mph 18.4 mph N/A   Overcast
1:54 PM 32.0 °F 25.6 °F 28.4 °F 87% 30.12 in 10.0 mi South 6.9 mph - N/A   Overcast
2:13 PM 32.0 °F 24.2 °F 28.4 °F 87% 30.11 in 10.0 mi South 9.2 mph - N/A   Overcast
2:33 PM 32.0 °F 21.6 °F 28.4 °F 87% 30.11 in 10.0 mi SSW 15.0 mph - N/A   Overcast
2:54 PM 32.0 °F 23.0 °F 28.4 °F 87% 30.11 in 10.0 mi South 11.5 mph 19.6 mph N/A   Overcast
3:13 PM 32.0 °F 24.8 °F 28.4 °F 87% 30.11 in 10.0 mi South 8.1 mph - N/A   Overcast
3:33 PM 32.0 °F 22.5 °F 28.4 °F 87% 30.11 in 10.0 mi South 12.7 mph 17.3 mph N/A   Overcast
3:54 PM 32.0 °F 24.2 °F 28.4 °F 87% 30.12 in 10.0 mi South 9.2 mph 18.4 mph N/A   Overcast
4:13 PM 32.0 °F 24.8 °F 28.4 °F 87% 30.12 in 10.0 mi South 8.1 mph - N/A   Overcast
4:33 PM 32.0 °F 22.5 °F 28.4 °F 87% 30.12 in 10.0 mi South 12.7 mph - N/A   Overcast
4:54 PM 32.0 °F 23.6 °F 28.4 °F 87% 30.12 in 10.0 mi South 10.4 mph - N/A   Overcast
5:13 PM 32.0 °F 20.8 °F 28.4 °F 87% 30.11 in 10.0 mi South 17.3 mph 23.0 mph N/A   Overcast
5:33 PM 32.0 °F 23.6 °F 28.4 °F 87% 30.11 in 10.0 mi South 10.4 mph - N/A   Overcast
5:54 PM 32.0 °F 25.6 °F 28.4 °F 87% 30.12 in 7.0 mi South 6.9 mph - N/A   Overcast
6:13 PM 32.0 °F 22.1 °F 28.4 °F 87% 30.11 in 7.0 mi South 13.8 mph 17.3 mph N/A   Overcast
6:33 PM 32.0 °F 22.5 °F 28.4 °F 87% 30.12 in 7.0 mi SSW 12.7 mph - N/A   Overcast
6:54 PM 32.0 °F 24.8 °F 28.4 °F 87% 30.11 in 7.0 mi South 8.1 mph - N/A   Overcast
7:13 PM 32.0 °F 25.6 °F 28.4 °F 87% 30.11 in 7.0 mi South 6.9 mph 16.1 mph N/A   Overcast
7:33 PM 32.0 °F 25.6 °F 28.4 °F 87% 30.11 in 7.0 mi South 6.9 mph - N/A   Overcast
7:53 PM 32.0 °F 22.5 °F 28.4 °F 87% 30.10 in 7.0 mi South 12.7 mph 18.4 mph N/A   Overcast
8:13 PM 32.0 °F 24.2 °F 28.4 °F 87% 30.10 in 5.0 mi South 9.2 mph - N/A   Overcast
8:34 PM 32.0 °F 24.2 °F 28.4 °F 87% 30.10 in 5.0 mi South 9.2 mph - N/A   Overcast
8:53 PM 32.0 °F 26.4 °F 28.4 °F 87% 30.10 in 5.0 mi South 5.8 mph - N/A   Overcast
9:13 PM 30.2 °F 24.3 °F 28.4 °F 93% 30.10 in 5.0 mi South 5.8 mph - N/A   Overcast
9:34 PM 30.2 °F 21.9 °F 28.4 °F 93% 30.09 in 7.0 mi South 9.2 mph 16.1 mph N/A   Overcast
9:53 PM 30.2 °F 22.6 °F 28.4 °F 93% 30.10 in 7.0 mi South 8.1 mph - N/A   Overcast
10:13 PM 30.2 °F 25.4 °F 28.4 °F 93% 30.10 in 7.0 mi South 4.6 mph - N/A   Overcast
10:34 PM 30.2 °F 21.9 °F 28.4 °F 93% 30.10 in 5.0 mi South 9.2 mph - N/A   Overcast
10:53 PM 30.2 °F 22.6 °F 28.4 °F 93% 30.10 in 5.0 mi South 8.1 mph - N/A   Overcast
11:13 PM 30.2 °F 23.4 °F 28.4 °F 93% 30.10 in 5.0 mi South 6.9 mph - N/A   Overcast
11:33 PM 30.2 °F 21.9 °F 28.4 °F 93% 30.10 in 4.0 mi South 9.2 mph - N/A   Overcast
11:53 PM 30.2 °F 22.6 °F 28.4 °F 93% 30.10 in 5.0 mi South 8.1 mph - N/A   Overcast